�v������,���r���O(���x),�����t���O,���r���O(���x),�����t���O,��1(���x),�����t���O,��2���x),�����t���O,�������x,�����t���O
12/1/2003 0:00,22.3,1,66.8,1,22.3,1,20.4,1,13.3,1
12/1/2003 0:15,22.4,1,65.4,1,22.3,1,20.4,1,13.4,1
12/1/2003 0:30,22.4,1,65.2,1,22.4,1,20.4,1,13.5,1
12/1/2003 0:45,22.5,1,64.4,1,22.4,1,20.4,1,13.1,1
12/1/2003 1:00,22.5,1,63,1,22.3,1,20.5,1,13.1,1
12/1/2003 1:15,22.5,1,62.4,1,22.2,1,20.5,1,13.2,1
12/1/2003 1:30,22.6,1,62,1,22.2,1,20.5,1,13.3,1
12/1/2003 1:45,22.6,1,61.7,1,22.1,1,20.5,1,13.5,1
12/1/2003 2:00,22.6,1,61.5,1,22.1,1,20.6,1,13.6,1
12/1/2003 2:15,22.6,1,61.2,1,22.1,1,20.6,1,13.7,1
12/1/2003 2:30,22.6,1,61.1,1,22,1,20.6,1,13.8,1
12/1/2003 2:45,22.6,1,60.8,1,22,1,20.6,1,14,1
12/1/2003 3:00,22.6,1,60.7,1,21.9,1,20.6,1,14.1,1
12/1/2003 3:15,22.6,1,60.8,1,21.9,1,20.6,1,14.2,1
12/1/2003 3:30,22.6,1,60.6,1,21.9,1,20.7,1,14.3,1
12/1/2003 3:45,22.6,1,60.6,1,21.8,1,20.7,1,14.4,1
12/1/2003 4:00,22.6,1,60.4,1,21.8,1,20.7,1,14.5,1
12/1/2003 4:15,22.5,1,60.4,1,21.8,1,20.7,1,14.7,1
12/1/2003 4:30,22.5,1,60.4,1,21.7,1,20.7,1,14.8,1
12/1/2003 4:45,22.5,1,60.3,1,21.7,1,20.7,1,14.9,1
12/1/2003 5:00,22.5,1,60.1,1,21.7,1,20.8,1,15,1
12/1/2003 5:15,22.5,1,60.1,1,21.7,1,20.8,1,15.1,1
12/1/2003 5:30,22.5,1,60.1,1,21.6,1,20.7,1,15.3,1
12/1/2003 5:45,22.5,1,60.1,1,21.6,1,20.7,1,15.4,1
12/1/2003 6:00,22.5,1,59.9,1,21.6,1,20.7,1,15.5,1
12/1/2003 6:15,22.4,1,60.1,1,21.6,1,20.7,1,15.6,1
12/1/2003 6:30,22.4,1,60.2,1,21.6,1,20.7,1,15.8,1
12/1/2003 6:45,22.5,1,60.2,1,21.6,1,20.7,1,14.8,1
12/1/2003 7:00,22.5,1,60.3,1,21.7,1,20.6,1,14.8,1
12/1/2003 7:15,22.5,1,61.5,1,21.8,1,20.6,1,14.9,1
12/1/2003 7:30,22.5,1,62,1,21.9,1,20.6,1,15,1
12/1/2003 7:45,22.5,1,62.1,1,22,1,20.5,1,15.1,1
12/1/2003 8:00,22.6,1,62.6,1,22.1,1,20.5,1,13.8,1
12/1/2003 8:15,22.6,1,62.4,1,22.2,1,20.5,1,12.6,1
12/1/2003 8:30,22.6,1,62.2,1,22.2,1,20.6,1,12.7,1
12/1/2003 8:45,22.6,1,62,1,22.3,1,20.6,1,13.6,1
12/1/2003 9:00,22.5,1,62.1,1,22.3,1,20.6,1,13.7,1
12/1/2003 9:15,22.6,1,61.5,1,22.3,1,20.7,1,13.8,1
12/1/2003 9:30,22.5,1,62,1,22.3,1,20.7,1,14,1
12/1/2003 9:45,22.4,1,61.7,1,22.2,1,20.7,1,14.2,1
12/1/2003 10:00,22.4,1,61.6,1,22.2,1,20.7,1,14.3,1
12/1/2003 10:15,22.3,1,61.8,1,22.2,1,20.7,1,14.4,1
12/1/2003 10:30,22.3,1,61.8,1,22.2,1,20.6,1,14.5,1
12/1/2003 10:45,22.3,1,62.1,1,22.2,1,20.6,1,14.5,1
12/1/2003 11:00,22.2,1,61.8,1,22.2,1,20.6,1,14.6,1
12/1/2003 11:15,22.2,1,61.6,1,22.1,1,20.6,1,14.7,1
12/1/2003 11:30,22.3,1,61.6,1,22.1,1,20.6,1,14.8,1
12/1/2003 11:45,22.3,1,61.5,1,22.2,1,20.6,1,14.9,1
12/1/2003 12:00,22.3,1,61.5,1,22.2,1,20.6,1,15,1
12/1/2003 12:15,22.2,1,61.3,1,22.2,1,20.6,1,15.1,1
12/1/2003 12:30,22.1,1,61.6,1,22.1,1,20.5,1,14.7,1
12/1/2003 12:45,22.1,1,61.8,1,22,1,20.5,1,14.7,1
12/1/2003 13:00,22,1,61.8,1,22,1,20.5,1,14.8,1
12/1/2003 13:15,22,1,61.9,1,22,1,20.5,1,14.9,1
12/1/2003 13:30,22,1,61.9,1,21.9,1,20.5,1,15,1
12/1/2003 13:45,22,1,62.2,1,21.9,1,20.4,1,15.1,1
12/1/2003 14:00,22,1,62.7,1,21.9,1,20.4,1,15.2,1
12/1/2003 14:15,22.1,1,62.5,1,21.8,1,20.4,1,15.3,1
12/1/2003 14:30,22,1,61.1,1,21.8,1,20.4,1,14.2,1
12/1/2003 14:45,22,1,61.4,1,21.7,1,20.4,1,14.3,1
12/1/2003 15:00,22,1,61.2,1,21.8,1,20.3,1,13.9,1
12/1/2003 15:15,22,1,61.4,1,21.8,1,20.3,1,14,1
12/1/2003 15:30,22,1,61.5,1,21.8,1,20.3,1,14.1,1
12/1/2003 15:45,22,1,61.3,1,21.8,1,20.3,1,14.1,1
12/1/2003 16:00,22,1,61.1,1,21.8,1,20.3,1,13,1
12/1/2003 16:15,21.9,1,60.9,1,21.8,1,20.2,1,13.1,1
12/1/2003 16:30,21.9,1,60.9,1,21.7,1,20.2,1,13.2,1
12/1/2003 16:45,21.9,1,61,1,21.7,1,20.2,1,13.3,1
12/1/2003 17:00,21.9,1,61.1,1,21.7,1,20.2,1,14,1
12/1/2003 17:15,21.8,1,61.4,1,21.7,1,20.1,1,14.1,1
12/1/2003 17:30,21.8,1,61.7,1,21.7,1,20.1,1,13.2,1
12/1/2003 17:45,21.8,1,61.3,1,21.7,1,20.1,1,13.3,1
12/1/2003 18:00,21.8,1,61.8,1,21.7,1,20.1,1,13.4,1
12/1/2003 18:15,21.7,1,61.9,1,21.8,1,20.1,1,13.5,1
12/1/2003 18:30,21.8,1,61.9,1,21.8,1,20.1,1,13.6,1
12/1/2003 18:45,21.7,1,61.4,1,21.7,1,20.1,1,13.7,1
12/1/2003 19:00,21.7,1,61.5,1,21.7,1,20,1,13.8,1
12/1/2003 19:15,21.7,1,61.4,1,21.7,1,20,1,13.2,1
12/1/2003 19:30,21.7,1,61.5,1,21.6,1,20,1,13.3,1
12/1/2003 19:45,21.7,1,61.8,1,21.6,1,20,1,13.8,1
12/1/2003 20:00,21.7,1,61.7,1,21.6,1,20,1,13.8,1
12/1/2003 20:15,21.7,1,61.8,1,21.6,1,20,1,13.9,1
12/1/2003 20:30,21.7,1,61.9,1,21.6,1,19.9,1,14,1
12/1/2003 20:45,21.7,1,62,1,21.6,1,19.9,1,14.1,1
12/1/2003 21:00,21.6,1,61.7,1,21.5,1,19.9,1,13.2,1
12/1/2003 21:15,21.7,1,64.9,1,21.5,1,19.9,1,13.3,1
12/1/2003 21:30,21.7,1,64.6,1,21.5,1,19.9,1,13.4,1
12/1/2003 21:45,21.6,1,63.2,1,21.5,1,19.9,1,13.5,1
12/1/2003 22:00,21.6,1,63.2,1,21.5,1,19.9,1,13.6,1
12/1/2003 22:15,21.5,1,62.8,1,21.4,1,19.8,1,13.7,1
12/1/2003 22:30,21.5,1,62.9,1,21.4,1,19.8,1,13.8,1
12/1/2003 22:45,21.5,1,63.1,1,21.5,1,19.7,1,13.3,1
12/1/2003 23:00,21.5,1,63.4,1,21.5,1,19.7,1,13.2,1
12/1/2003 23:15,21.6,1,64.4,1,21.5,1,19.7,1,13.3,1
12/1/2003 23:30,21.6,1,64.5,1,21.5,1,19.7,1,13.3,1
12/1/2003 23:45,21.5,1,64.8,1,21.4,1,19.6,1,13.4,1
12/2/2003 0:00,21.5,1,65.2,1,21.4,1,19.6,1,13.5,1
12/2/2003 0:15,21.5,1,65.4,1,21.3,1,19.6,1,13.7,1
12/2/2003 0:30,21.5,1,65.4,1,21.3,1,19.6,1,13.7,1
12/2/2003 0:45,21.5,1,65.5,1,21.3,1,19.6,1,13.8,1
12/2/2003 1:00,21.4,1,65.4,1,21.2,1,19.6,1,13.9,1
12/2/2003 1:15,21.4,1,65.4,1,21.1,1,19.6,1,14,1
12/2/2003 1:30,21.3,1,65.4,1,21,1,19.6,1,14.1,1
12/2/2003 1:45,21.3,1,65.4,1,20.9,1,19.6,1,14.2,1
12/2/2003 2:00,21.3,1,65.4,1,20.8,1,19.6,1,14.3,1
12/2/2003 2:15,21.2,1,65.3,1,20.8,1,19.6,1,14.4,1
12/2/2003 2:30,21.2,1,65.2,1,20.7,1,19.6,1,14.5,1
12/2/2003 2:45,21.1,1,65.2,1,20.7,1,19.6,1,14.6,1
12/2/2003 3:00,21.1,1,65.2,1,20.6,1,19.6,1,14.7,1
12/2/2003 3:15,21,1,65.2,1,20.6,1,19.6,1,14.8,1
12/2/2003 3:30,21,1,65.1,1,20.5,1,19.6,1,14.9,1
12/2/2003 3:45,21,1,65,1,20.5,1,19.6,1,15,1
12/2/2003 4:00,21,1,64.9,1,20.4,1,19.6,1,15.1,1
12/2/2003 4:15,20.9,1,64.8,1,20.4,1,19.6,1,15.2,1
12/2/2003 4:30,20.9,1,64.8,1,20.4,1,19.5,1,15.3,1
12/2/2003 4:45,20.8,1,64.7,1,20.3,1,19.5,1,15.5,1
12/2/2003 5:00,20.8,1,64.5,1,20.3,1,19.5,1,15.6,1
12/2/2003 5:15,20.8,1,64.4,1,20.2,1,19.5,1,15.7,1
12/2/2003 5:30,20.7,1,64.3,1,20.2,1,19.4,1,15.8,1
12/2/2003 5:45,20.7,1,64.2,1,20.2,1,19.4,1,15.9,1
12/2/2003 6:00,20.7,1,64.1,1,20.1,1,19.4,1,15.9,1
12/2/2003 6:15,20.7,1,64,1,20.1,1,19.4,1,16,1
12/2/2003 6:30,20.6,1,64,1,20.1,1,19.3,1,16.1,1
12/2/2003 6:45,20.6,1,63.8,1,20.1,1,19.3,1,16.2,1
12/2/2003 7:00,20.6,1,63.9,1,20.1,1,19.3,1,16.3,1
12/2/2003 7:15,20.6,1,64.4,1,20.1,1,19.3,1,14.3,1
12/2/2003 7:30,20.7,1,64.5,1,20.2,1,19.2,1,14.4,1
12/2/2003 7:45,20.7,1,64.6,1,20.3,1,19.2,1,13.4,1
12/2/2003 8:00,20.8,1,64.6,1,20.5,1,19.2,1,13.4,1
12/2/2003 8:15,20.8,1,64.4,1,20.5,1,19.3,1,13.4,1
12/2/2003 8:30,20.9,1,64.4,1,20.6,1,19.4,1,13.5,1
12/2/2003 8:45,20.9,1,64.1,1,20.7,1,19.7,1,13.6,1
12/2/2003 9:00,20.9,1,64.2,1,20.8,1,19.9,1,13.7,1
12/2/2003 9:15,21,1,64.4,1,20.9,1,20.2,1,13.8,1
12/2/2003 9:30,21.1,1,64.6,1,21,1,20.5,1,13.9,1
12/2/2003 9:45,21.2,1,64.8,1,21.1,1,20.7,1,14,1
12/2/2003 10:00,21.3,1,65,1,21.3,1,21,1,14.1,1
12/2/2003 10:15,21.4,1,65.2,1,21.6,1,21.3,1,14.2,1
12/2/2003 10:30,21.5,1,65.4,1,21.9,1,21.6,1,14.3,1
12/2/2003 10:45,21.6,1,65.6,1,22,1,21.8,1,14.4,1
12/2/2003 11:00,21.7,1,65.8,1,22.5,1,22.1,1,14.5,1
12/2/2003 11:15,21.8,1,65.8,1,23.1,1,22.3,1,14.6,1
12/2/2003 11:30,21.9,1,66,1,23.2,1,22.6,1,14.7,1
12/2/2003 11:45,22,1,65.9,1,23,1,22.8,1,14.8,1
12/2/2003 12:00,22.1,1,66,1,24.3,1,23.1,1,14.9,1
12/2/2003 12:15,22.2,1,66.1,1,24.3,1,23.3,1,15,1
12/2/2003 12:30,22.2,1,65.8,1,23.7,1,23.5,1,15.1,1
12/2/2003 12:45,22.3,1,65.9,1,23.3,1,23.7,1,15.2,1
12/2/2003 13:00,22.3,1,65.8,1,23.2,1,23.9,1,15.3,1
12/2/2003 13:15,22.3,1,65.8,1,23.1,1,24,1,15.5,1
12/2/2003 13:30,22.4,1,65.6,1,23.1,1,24.2,1,15.6,1
12/2/2003 13:45,22.4,1,65.6,1,23.1,1,24.3,1,15.7,1
12/2/2003 14:00,22.5,1,65.2,1,23.1,1,24.5,1,15.8,1
12/2/2003 14:15,22.5,1,65.7,1,23.1,1,24.5,1,15.9,1
12/2/2003 14:30,22.6,1,65.6,1,23.1,1,24.6,1,16,1
12/2/2003 14:45,22.7,1,63.7,1,23.1,1,24.7,1,16.1,1
12/2/2003 15:00,22.6,1,64.2,1,23.1,1,24.8,1,13.4,1
12/2/2003 15:15,22.6,1,65.4,1,23.1,1,24.8,1,13.5,1
12/2/2003 15:30,22.7,1,65.1,1,23.1,1,24.8,1,13.6,1
12/2/2003 15:45,22.7,1,64.9,1,23.1,1,24.7,1,13.7,1
12/2/2003 16:00,22.7,1,64.7,1,23.1,1,24.5,1,13.9,1
12/2/2003 16:15,22.7,1,64.1,1,23.1,1,24.4,1,14,1
12/2/2003 16:30,22.8,1,64,1,23.1,1,24.2,1,14.1,1
12/2/2003 16:45,22.8,1,64.1,1,23.2,1,24.1,1,14.2,1
12/2/2003 17:00,22.8,1,64.4,1,23.2,1,24,1,14.3,1
12/2/2003 17:15,22.8,1,62.2,1,23.1,1,23.9,1,14,1
12/2/2003 17:30,22.8,1,63.2,1,23.1,1,23.8,1,14,1
12/2/2003 17:45,22.9,1,62.8,1,23,1,23.7,1,14.2,1
12/2/2003 18:00,22.9,1,62.6,1,23,1,23.6,1,14.3,1
12/2/2003 18:15,23,1,62.3,1,23,1,23.5,1,14.4,1
12/2/2003 18:30,23,1,62.3,1,23,1,23.4,1,14.5,1
12/2/2003 18:45,23,1,63.2,1,23.1,1,23.4,1,13.3,1
12/2/2003 19:00,23.1,1,63.3,1,23.1,1,23.3,1,13.5,1
12/2/2003 19:15,23.1,1,62.7,1,23.1,1,23.2,1,13.6,1
12/2/2003 19:30,23.1,1,62.5,1,23.1,1,23.2,1,13.7,1
12/2/2003 19:45,23.1,1,62.6,1,23.1,1,23.1,1,13.8,1
12/2/2003 20:00,23.1,1,62.5,1,23,1,23,1,13.9,1
12/2/2003 20:15,23,1,62.2,1,23,1,22.9,1,14.1,1
12/2/2003 20:30,22.9,1,62,1,23,1,22.9,1,14.2,1
12/2/2003 20:45,22.9,1,61.9,1,22.9,1,22.8,1,14.3,1
12/2/2003 21:00,22.8,1,61.9,1,22.9,1,22.7,1,14.4,1
12/2/2003 21:15,22.8,1,61.8,1,22.8,1,22.7,1,14.5,1
12/2/2003 21:30,22.8,1,63,1,22.8,1,22.6,1,14.6,1
12/2/2003 21:45,22.8,1,62.9,1,22.8,1,22.5,1,13.6,1
12/2/2003 22:00,22.7,1,63.4,1,22.8,1,22.5,1,13.8,1
12/2/2003 22:15,22.7,1,62.9,1,22.8,1,22.4,1,13.9,1
12/2/2003 22:30,22.7,1,62.7,1,22.7,1,22.4,1,14,1
12/2/2003 22:45,22.8,1,62.8,1,22.8,1,22.3,1,13.3,1
12/2/2003 23:00,22.9,1,65.7,1,22.7,1,22.3,1,13.4,1
12/2/2003 23:15,22.9,1,65,1,22.7,1,22.3,1,13.5,1
12/2/2003 23:30,22.9,1,63.4,1,22.7,1,22.2,1,13.6,1
12/2/2003 23:45,22.9,1,63.2,1,22.7,1,22.2,1,13.7,1
12/3/2003 0:00,22.9,1,62.9,1,22.7,1,22.1,1,14.1,1
12/3/2003 0:15,22.9,1,62.4,1,22.7,1,22.1,1,14.1,1
12/3/2003 0:30,22.8,1,61.1,1,22.6,1,22,1,13.6,1
12/3/2003 0:45,22.8,1,60.6,1,22.5,1,22,1,13.7,1
12/3/2003 1:00,22.7,1,60.3,1,22.4,1,21.9,1,13.8,1
12/3/2003 1:15,22.7,1,59.9,1,22.2,1,21.8,1,13.9,1
12/3/2003 1:30,22.6,1,59.7,1,22.1,1,21.8,1,14,1
12/3/2003 1:45,22.5,1,59.4,1,22,1,21.8,1,14.1,1
12/3/2003 2:00,22.4,1,59.2,1,22,1,21.7,1,14.2,1
12/3/2003 2:15,22.3,1,59.1,1,21.8,1,21.7,1,14.3,1
12/3/2003 2:30,22.3,1,59,1,21.8,1,21.6,1,14.4,1
12/3/2003 2:45,22.3,1,58.7,1,21.7,1,21.6,1,14.5,1
12/3/2003 3:00,22.2,1,58.5,1,21.6,1,21.5,1,14.6,1
12/3/2003 3:15,22.1,1,58.4,1,21.5,1,21.4,1,14.7,1
12/3/2003 3:30,22,1,58.3,1,21.5,1,21.4,1,14.8,1
12/3/2003 3:45,21.9,1,58.4,1,21.4,1,21.3,1,14.9,1
12/3/2003 4:00,21.9,1,58.2,1,21.3,1,21.2,1,15,1
12/3/2003 4:15,21.9,1,57.9,1,21.3,1,21.2,1,15.1,1
12/3/2003 4:30,21.8,1,58,1,21.2,1,21.2,1,15.2,1
12/3/2003 4:45,21.7,1,57.9,1,21.1,1,21.1,1,15.3,1
12/3/2003 5:00,21.6,1,57.8,1,21.1,1,21.1,1,15.4,1
12/3/2003 5:15,21.6,1,57.9,1,21,1,21,1,15.5,1
12/3/2003 5:30,21.6,1,57.7,1,21,1,20.9,1,15.6,1
12/3/2003 5:45,21.5,1,57.5,1,20.9,1,20.8,1,15.7,1
12/3/2003 6:00,21.4,1,57.4,1,20.9,1,20.7,1,15.8,1
12/3/2003 6:15,21.4,1,57.4,1,20.8,1,20.6,1,15.9,1
12/3/2003 6:30,21.3,1,57.3,1,20.7,1,20.6,1,16,1
12/3/2003 6:45,21.2,1,57.4,1,20.7,1,20.5,1,16.1,1
12/3/2003 7:00,21.2,1,57.3,1,20.6,1,20.4,1,16.1,1
12/3/2003 7:15,21.2,1,57.7,1,20.6,1,20.3,1,14.3,1
12/3/2003 7:30,21.2,1,58.1,1,20.7,1,20.2,1,13.8,1
12/3/2003 7:45,21.2,1,58.2,1,20.9,1,20.2,1,13.6,1
12/3/2003 8:00,21.2,1,59,1,20.9,1,20.1,1,13.7,1
12/3/2003 8:15,21.2,1,59.3,1,21,1,20.1,1,13.2,1
12/3/2003 8:30,21.2,1,59,1,21,1,20,1,13.1,1
12/3/2003 8:45,21.3,1,58.9,1,21.1,1,20,1,13.2,1
12/3/2003 9:00,21.3,1,59,1,21.1,1,20,1,13.3,1
12/3/2003 9:15,21.2,1,59.1,1,21,1,19.9,1,14,1
12/3/2003 9:30,21.2,1,59.2,1,20.9,1,19.9,1,14.1,1
12/3/2003 9:45,21.1,1,59.3,1,20.8,1,19.9,1,13.6,1
12/3/2003 10:00,21.1,1,59.6,1,20.8,1,19.8,1,13.7,1
12/3/2003 10:15,21.1,1,59.4,1,20.7,1,19.8,1,13.8,1
12/3/2003 10:30,21,1,59.5,1,20.6,1,19.8,1,13.9,1
12/3/2003 10:45,21,1,59.6,1,20.6,1,19.7,1,14,1
12/3/2003 11:00,21,1,59.5,1,20.7,1,19.8,1,14.1,1
12/3/2003 11:15,21,1,59.6,1,20.9,1,19.8,1,14.2,1
12/3/2003 11:30,21,1,59.8,1,20.9,1,19.8,1,14.3,1
12/3/2003 11:45,21,1,59.8,1,20.9,1,19.8,1,14.4,1
12/3/2003 12:00,21,1,59.9,1,20.9,1,19.8,1,14.4,1
12/3/2003 12:15,21,1,59.9,1,20.9,1,19.8,1,14.5,1
12/3/2003 12:30,21,1,59.9,1,20.9,1,19.9,1,14.6,1
12/3/2003 12:45,21,1,59.9,1,20.9,1,19.9,1,14.7,1
12/3/2003 13:00,21,1,60,1,20.9,1,19.9,1,14.8,1
12/3/2003 13:15,21,1,59.9,1,20.9,1,19.9,1,14.9,1
12/3/2003 13:30,21,1,59.6,1,20.9,1,19.9,1,15,1
12/3/2003 13:45,20.9,1,59.1,1,20.9,1,20,1,15.1,1
12/3/2003 14:00,20.9,1,59.4,1,20.9,1,20.1,1,15.2,1
12/3/2003 14:15,20.9,1,59.6,1,21,1,20.2,1,14.6,1
12/3/2003 14:30,21,1,59.6,1,21,1,20.2,1,14.7,1
12/3/2003 14:45,21,1,59.9,1,21.1,1,20.3,1,13.8,1
12/3/2003 15:00,20.9,1,59,1,21.2,1,20.3,1,13.9,1
12/3/2003 15:15,21,1,59.9,1,21.2,1,20.4,1,14,1
12/3/2003 15:30,21,1,59.8,1,21.2,1,20.4,1,14.1,1
12/3/2003 15:45,21,1,59.8,1,21.1,1,20.3,1,14.2,1
12/3/2003 16:00,21,1,58.6,1,21.1,1,20.3,1,14.3,1
12/3/2003 16:15,21.1,1,58.9,1,21,1,20.3,1,14.4,1
12/3/2003 16:30,21.1,1,58.3,1,21,1,20.2,1,14.5,1
12/3/2003 16:45,21.1,1,58.5,1,21,1,20.2,1,14.5,1
12/3/2003 17:00,21.1,1,58.7,1,21,1,20.1,1,14.6,1
12/3/2003 17:15,21,1,58.7,1,21,1,20.1,1,14.4,1
12/3/2003 17:30,21,1,58.7,1,21,1,20.1,1,14.5,1
12/3/2003 17:45,21,1,59.1,1,20.9,1,20,1,14,1
12/3/2003 18:00,21,1,58.8,1,20.9,1,20,1,14.1,1
12/3/2003 18:15,21,1,58.9,1,20.9,1,20,1,14.2,1
12/3/2003 18:30,21,1,58.9,1,21,1,19.9,1,14.3,1
12/3/2003 18:45,21,1,58.7,1,21,1,19.9,1,14.3,1
12/3/2003 19:00,20.9,1,58.7,1,21,1,19.9,1,14.4,1
12/3/2003 19:15,21,1,58.8,1,21,1,19.9,1,14.4,1
12/3/2003 19:30,21,1,59.1,1,21.2,1,19.9,1,14.5,1
12/3/2003 19:45,21,1,60.2,1,21.3,1,19.9,1,14,1
12/3/2003 20:00,21,1,60.3,1,21.4,1,19.8,1,13.4,1
12/3/2003 20:15,21,1,60.1,1,21.4,1,19.8,1,13.5,1
12/3/2003 20:30,21,1,60.1,1,21.4,1,19.8,1,13.6,1
12/3/2003 20:45,21,1,59.8,1,21.4,1,19.8,1,13.7,1
12/3/2003 21:00,20.9,1,59.9,1,21.3,1,19.8,1,13.8,1
12/3/2003 21:15,20.9,1,59.9,1,21.2,1,19.8,1,13.9,1
12/3/2003 21:30,20.9,1,60.8,1,21.1,1,19.7,1,13.2,1
12/3/2003 21:45,20.9,1,62,1,21,1,19.7,1,13.3,1
12/3/2003 22:00,20.9,1,61.3,1,21,1,19.7,1,13.4,1
12/3/2003 22:15,20.9,1,61.2,1,21,1,19.6,1,13.5,1
12/3/2003 22:30,20.9,1,61.4,1,20.9,1,19.6,1,13.6,1
12/3/2003 22:45,21,1,61.5,1,21,1,19.6,1,13.7,1
12/3/2003 23:00,21.1,1,62.8,1,20.9,1,19.5,1,13.3,1
12/3/2003 23:15,21.2,1,63,1,20.9,1,19.4,1,13.1,1
12/3/2003 23:30,21.2,1,62.9,1,20.8,1,19.4,1,13.2,1
12/3/2003 23:45,21.3,1,62.6,1,20.7,1,19.3,1,13.4,1
12/4/2003 0:00,21.4,1,61.5,1,20.6,1,19.2,1,13.5,1
12/4/2003 0:15,21.4,1,61.7,1,20.5,1,19.3,1,13.6,1
12/4/2003 0:30,21.4,1,60.7,1,20.4,1,19.2,1,13.7,1
12/4/2003 0:45,21.4,1,60.7,1,20.4,1,19.2,1,13.7,1
12/4/2003 1:00,21.4,1,60.8,1,20.3,1,19.1,1,13.8,1
12/4/2003 1:15,21.3,1,60.2,1,20.2,1,19.1,1,13.9,1
12/4/2003 1:30,21.3,1,59.3,1,20.1,1,19,1,14,1
12/4/2003 1:45,21.3,1,58.8,1,20,1,19,1,14.1,1
12/4/2003 2:00,21.3,1,58.9,1,19.9,1,19,1,14.2,1
12/4/2003 2:15,21.2,1,58.3,1,19.8,1,18.9,1,14.3,1
12/4/2003 2:30,21.2,1,58.4,1,19.8,1,18.9,1,14.4,1
12/4/2003 2:45,21.1,1,57.8,1,19.7,1,18.9,1,14.5,1
12/4/2003 3:00,21.1,1,57.8,1,19.6,1,18.8,1,14.5,1
12/4/2003 3:15,21,1,58.1,1,19.6,1,18.8,1,14.6,1
12/4/2003 3:30,21,1,57.3,1,19.5,1,18.7,1,14.7,1
12/4/2003 3:45,20.9,1,57.7,1,19.4,1,18.6,1,14.8,1
12/4/2003 4:00,20.9,1,57.1,1,19.4,1,18.6,1,14.9,1
12/4/2003 4:15,20.8,1,57.6,1,19.3,1,18.5,1,14.9,1
12/4/2003 4:30,20.8,1,57.1,1,19.3,1,18.5,1,15,1
12/4/2003 4:45,20.7,1,56.9,1,19.3,1,18.4,1,15.1,1
12/4/2003 5:00,20.7,1,57.1,1,19.2,1,18.4,1,15.2,1
12/4/2003 5:15,20.6,1,57,1,19.1,1,18.4,1,15.3,1
12/4/2003 5:30,20.6,1,56.8,1,19.1,1,18.3,1,15.4,1
12/4/2003 5:45,20.4,1,56.4,1,19.1,1,18.3,1,15.5,1
12/4/2003 6:00,20.3,1,57.3,1,19,1,18.2,1,15.5,1
12/4/2003 6:15,20.3,1,56.8,1,19,1,18.1,1,15.6,1
12/4/2003 6:30,20.2,1,57.2,1,18.9,1,18.1,1,15.7,1
12/4/2003 6:45,20,1,56.5,1,18.9,1,18,1,15.8,1
12/4/2003 7:00,19.9,1,58.2,1,19,1,17.9,1,15.8,1
12/4/2003 7:15,19.9,1,56.7,1,19,1,17.8,1,13.2,1
12/4/2003 7:30,19.9,1,56.8,1,19.1,1,17.7,1,13.3,1
12/4/2003 7:45,19.9,1,57.3,1,19.2,1,17.7,1,13.1,1
12/4/2003 8:00,19.9,1,57.2,1,19.3,1,17.7,1,13.2,1
12/4/2003 8:15,20,1,57.5,1,19.4,1,17.8,1,13,1
12/4/2003 8:30,20,1,57.7,1,19.5,1,17.9,1,13,1
12/4/2003 8:45,20.1,1,58.1,1,19.7,1,18.1,1,13.1,1
12/4/2003 9:00,20.2,1,58.1,1,19.9,1,18.5,1,13.6,1
12/4/2003 9:15,20.3,1,58.5,1,20.1,1,18.7,1,13.7,1
12/4/2003 9:30,20.3,1,58.8,1,20.2,1,19,1,13.8,1
12/4/2003 9:45,20.4,1,59.1,1,20.4,1,19.3,1,13.8,1
12/4/2003 10:00,20.5,1,59.1,1,20.5,1,19.5,1,13.9,1
12/4/2003 10:15,20.5,1,57.8,1,20.6,1,19.7,1,14,1
12/4/2003 10:30,20.5,1,56,1,20.7,1,19.7,1,14.1,1
12/4/2003 10:45,20.6,1,56.2,1,20.8,1,19.9,1,14,1
12/4/2003 11:00,20.7,1,57.1,1,21,1,20.2,1,14.1,1
12/4/2003 11:15,20.7,1,57.4,1,21.2,1,20.5,1,14.1,1
12/4/2003 11:30,20.8,1,58,1,21.7,1,20.7,1,14.2,1
12/4/2003 11:45,20.9,1,58.3,1,21.4,1,21,1,14.3,1
12/4/2003 12:00,20.9,1,58.7,1,22.3,1,21.2,1,14.3,1
12/4/2003 12:15,21,1,59,1,22.5,1,21.5,1,14.4,1
12/4/2003 12:30,21,1,59.1,1,21.9,1,21.7,1,14.5,1
12/4/2003 12:45,21.1,1,59.3,1,21.7,1,21.9,1,14.6,1
12/4/2003 13:00,21.1,1,59.5,1,21.6,1,22.1,1,14.7,1
12/4/2003 13:15,21.1,1,59.7,1,21.5,1,22.3,1,14.7,1
12/4/2003 13:30,21.2,1,59.9,1,21.5,1,22.5,1,14.8,1
12/4/2003 13:45,21.2,1,60.2,1,21.5,1,22.6,1,14.9,1
12/4/2003 14:00,21.2,1,60.2,1,21.5,1,22.7,1,14.9,1
12/4/2003 14:15,21.3,1,60.2,1,21.5,1,22.9,1,15.1,1
12/4/2003 14:30,21.3,1,60.2,1,21.5,1,23,1,15.1,1
12/4/2003 14:45,21.4,1,60.4,1,21.6,1,23.1,1,15.2,1
12/4/2003 15:00,21.4,1,60.5,1,21.6,1,23.1,1,15.3,1
12/4/2003 15:15,21.4,1,57.8,1,21.6,1,23.1,1,15.4,1
12/4/2003 15:30,21.3,1,58.3,1,21.6,1,23,1,15.5,1
12/4/2003 15:45,21.4,1,58.7,1,21.7,1,22.9,1,15.6,1
12/4/2003 16:00,21.5,1,58.8,1,21.8,1,22.8,1,15.7,1
12/4/2003 16:15,21.6,1,58.9,1,21.9,1,22.7,1,15.8,1
12/4/2003 16:30,21.6,1,58.5,1,21.9,1,22.5,1,15.8,1
12/4/2003 16:45,21.6,1,58.1,1,21.9,1,22.4,1,15.9,1
12/4/2003 17:00,21.7,1,57.4,1,21.9,1,22.3,1,16,1
12/4/2003 17:15,21.7,1,57.8,1,21.9,1,22.2,1,16.1,1
12/4/2003 17:30,21.8,1,57.8,1,21.9,1,22.1,1,16.2,1
12/4/2003 17:45,21.8,1,57.8,1,21.9,1,22.1,1,16.3,1
12/4/2003 18:00,21.8,1,57.7,1,21.9,1,22,1,16.3,1
12/4/2003 18:15,21.8,1,57.5,1,21.9,1,21.9,1,16.4,1
12/4/2003 18:30,21.8,1,57.8,1,21.8,1,21.8,1,14.4,1
12/4/2003 18:45,21.7,1,57.3,1,21.8,1,21.7,1,14.5,1
12/4/2003 19:00,21.7,1,57.5,1,21.7,1,21.6,1,12.8,1
12/4/2003 19:15,21.7,1,57.5,1,21.7,1,21.6,1,12.9,1
12/4/2003 19:30,21.6,1,57.4,1,21.7,1,21.5,1,13,1
12/4/2003 19:45,21.7,1,58.3,1,21.7,1,21.4,1,13.1,1
12/4/2003 20:00,21.7,1,58.6,1,21.8,1,21.3,1,13.2,1
12/4/2003 20:15,21.7,1,58.5,1,21.8,1,21.3,1,13.3,1
12/4/2003 20:30,21.7,1,58,1,21.8,1,21.2,1,13.4,1
12/4/2003 20:45,21.7,1,57.8,1,21.8,1,21.2,1,13.8,1
12/4/2003 21:00,21.7,1,57.9,1,21.8,1,21.2,1,13.1,1
12/4/2003 21:15,21.6,1,57.9,1,21.7,1,21.1,1,13.2,1
12/4/2003 21:30,21.7,1,61.5,1,21.7,1,21,1,13.3,1
12/4/2003 21:45,21.6,1,59,1,21.6,1,21,1,13.4,1
12/4/2003 22:00,21.5,1,58.9,1,21.5,1,21,1,13.5,1
12/4/2003 22:15,21.5,1,58.1,1,21.4,1,20.9,1,13.6,1
12/4/2003 22:30,21.5,1,58.1,1,21.4,1,20.9,1,13.7,1
12/4/2003 22:45,21.4,1,57.8,1,21.3,1,20.8,1,13.8,1
12/4/2003 23:00,21.4,1,57.2,1,21.2,1,20.7,1,13.9,1
12/4/2003 23:15,21.4,1,58,1,21.2,1,20.6,1,13.1,1
12/4/2003 23:30,21.4,1,58,1,21.2,1,20.5,1,13.2,1
12/4/2003 23:45,21.3,1,58,1,21.3,1,20.4,1,13.1,1
12/5/2003 0:00,21.3,1,57.7,1,21.2,1,20.3,1,13.2,1
12/5/2003 0:15,21.3,1,57.7,1,21.1,1,20.3,1,13.3,1
12/5/2003 0:30,21.2,1,57.4,1,21,1,20.2,1,13.4,1
12/5/2003 0:45,21.2,1,56.3,1,20.9,1,20.1,1,13.5,1
12/5/2003 1:00,21.1,1,55.9,1,20.7,1,20.1,1,13.9,1
12/5/2003 1:15,21,1,55.7,1,20.6,1,20,1,14.1,1
12/5/2003 1:30,20.9,1,55.4,1,20.5,1,19.9,1,14.2,1
12/5/2003 1:45,20.8,1,55.1,1,20.3,1,19.9,1,14.3,1
12/5/2003 2:00,20.8,1,55.3,1,20.2,1,19.8,1,14.3,1
12/5/2003 2:15,20.7,1,55,1,20.1,1,19.7,1,14.4,1
12/5/2003 2:30,20.7,1,54.7,1,20,1,19.7,1,14.5,1
12/5/2003 2:45,20.6,1,54.4,1,19.9,1,19.6,1,14.6,1
12/5/2003 3:00,20.5,1,54.4,1,19.8,1,19.6,1,14.7,1
12/5/2003 3:15,20.4,1,54.3,1,19.8,1,19.6,1,14.8,1
12/5/2003 3:30,20.3,1,54.1,1,19.7,1,19.5,1,14.9,1
12/5/2003 3:45,20.3,1,54.6,1,19.7,1,19.4,1,14.9,1
12/5/2003 4:00,20.2,1,54.2,1,19.6,1,19.4,1,15.1,1
12/5/2003 4:15,20.2,1,54,1,19.5,1,19.3,1,15.1,1
12/5/2003 4:30,20.1,1,53.5,1,19.5,1,19.2,1,15.2,1
12/5/2003 4:45,20,1,53.8,1,19.4,1,19.2,1,15.3,1
12/5/2003 5:00,19.9,1,53.3,1,19.3,1,19.1,1,15.4,1
12/5/2003 5:15,19.9,1,53.6,1,19.3,1,19,1,15.5,1
12/5/2003 5:30,19.9,1,53.3,1,19.2,1,19,1,15.6,1
12/5/2003 5:45,19.8,1,53.2,1,19.2,1,18.9,1,15.6,1
12/5/2003 6:00,19.8,1,53.1,1,19.1,1,18.8,1,15.7,1
12/5/2003 6:15,19.7,1,53,1,19,1,18.7,1,15.8,1
12/5/2003 6:30,19.6,1,53.3,1,19,1,18.7,1,14.2,1
12/5/2003 6:45,19.6,1,53.8,1,19,1,18.6,1,13,1
12/5/2003 7:00,19.6,1,54.6,1,19,1,18.5,1,13.1,1
12/5/2003 7:15,19.5,1,54.6,1,19,1,18.4,1,12.4,1
12/5/2003 7:30,19.6,1,56.1,1,19.1,1,18.4,1,12.6,1
12/5/2003 7:45,19.6,1,55.6,1,19.2,1,18.3,1,12.4,1
12/5/2003 8:00,19.6,1,55.7,1,19.2,1,18.3,1,12.3,1
12/5/2003 8:15,19.6,1,55.6,1,19.2,1,18.3,1,12.4,1
12/5/2003 8:30,19.6,1,55.5,1,19.3,1,18.3,1,12.9,1
12/5/2003 8:45,19.6,1,55.5,1,19.3,1,18.2,1,13,1
12/5/2003 9:00,19.6,1,55.9,1,19.3,1,18.2,1,13.1,1
12/5/2003 9:15,19.6,1,55.1,1,19.2,1,18.2,1,13.2,1
12/5/2003 9:30,19.5,1,54.1,1,19.2,1,18.2,1,13.3,1
12/5/2003 9:45,19.5,1,54.1,1,19.1,1,18.1,1,13.4,1
12/5/2003 10:00,19.5,1,54.5,1,19.1,1,18.1,1,13.5,1
12/5/2003 10:15,19.5,1,53.8,1,19.1,1,18.1,1,13.6,1
12/5/2003 10:30,19.6,1,54,1,19.2,1,18.1,1,13.9,1
12/5/2003 10:45,19.6,1,54,1,19.2,1,18.1,1,14,1
12/5/2003 11:00,19.6,1,54,1,19.2,1,18.1,1,14.1,1
12/5/2003 11:15,19.5,1,54.1,1,19.3,1,18.1,1,14.2,1
12/5/2003 11:30,19.5,1,54.2,1,19.3,1,18.1,1,14.3,1
12/5/2003 11:45,19.5,1,54.3,1,19.3,1,18.1,1,14.3,1
12/5/2003 12:00,19.5,1,54.4,1,19.3,1,18.1,1,14.4,1
12/5/2003 12:15,19.5,1,54.4,1,19.3,1,18.1,1,14.5,1
12/5/2003 12:30,19.5,1,54.5,1,19.3,1,18.1,1,14.6,1
12/5/2003 12:45,19.4,1,54.5,1,19.3,1,18.1,1,14.6,1
12/5/2003 13:00,19.4,1,54.7,1,19.3,1,18.1,1,13.9,1
12/5/2003 13:15,19.3,1,48.9,1,19.3,1,18.1,1,14,1
12/5/2003 13:30,18.6,1,43.8,1,18.8,1,18,1,14,1
12/5/2003 13:45,18.6,1,48.3,1,18.5,1,18,1,14.1,1
12/5/2003 14:00,18.9,1,51.3,1,18.6,1,17.9,1,13.4,1
12/5/2003 14:15,18.9,1,52.5,1,18.7,1,17.8,1,13.5,1
12/5/2003 14:30,18.9,1,52.8,1,18.7,1,17.8,1,13.5,1
12/5/2003 14:45,19,1,53.7,1,18.7,1,17.8,1,13.6,1
12/5/2003 15:00,19,1,54.6,1,18.7,1,17.8,1,13.7,1
12/5/2003 15:15,19,1,55.3,1,18.7,1,17.8,1,13.9,1
12/5/2003 15:30,19,1,56,1,18.7,1,17.8,1,14.1,1
12/5/2003 15:45,19,1,56.5,1,18.8,1,17.8,1,13.6,1
12/5/2003 16:00,19.1,1,57.2,1,18.8,1,17.8,1,13.7,1
12/5/2003 16:15,19.1,1,57.5,1,18.8,1,17.7,1,13.8,1
12/5/2003 16:30,19.1,1,57.6,1,18.8,1,17.7,1,13.8,1
12/5/2003 16:45,19.1,1,57.8,1,18.8,1,17.7,1,13.9,1
12/5/2003 17:00,19.1,1,57.8,1,18.8,1,17.7,1,14,1
12/5/2003 17:15,19.1,1,58.1,1,18.8,1,17.7,1,14.3,1
12/5/2003 17:30,19.1,1,58.2,1,18.9,1,17.7,1,14.4,1
12/5/2003 17:45,19.1,1,58.2,1,18.9,1,17.7,1,14.4,1
12/5/2003 18:00,19.1,1,58.3,1,18.9,1,17.7,1,13.7,1
12/5/2003 18:15,19.1,1,58.2,1,18.9,1,17.7,1,13.2,1
12/5/2003 18:30,19.1,1,58.3,1,18.9,1,17.7,1,13.3,1
12/5/2003 18:45,19.1,1,58.1,1,19,1,17.7,1,13.4,1
12/5/2003 19:00,19.1,1,58.6,1,19,1,17.7,1,13.4,1
12/5/2003 19:15,19.1,1,58.3,1,19,1,17.7,1,13.5,1
12/5/2003 19:30,19.1,1,59.1,1,19.1,1,17.7,1,13.6,1
12/5/2003 19:45,19.2,1,59.5,1,19.1,1,17.7,1,13.9,1
12/5/2003 20:00,19.2,1,59.5,1,19.2,1,17.7,1,14,1
12/5/2003 20:15,19.2,1,59.4,1,19.2,1,17.8,1,14.1,1
12/5/2003 20:30,19.2,1,59.2,1,19.2,1,17.8,1,14.2,1
12/5/2003 20:45,19.2,1,59.1,1,19.2,1,17.8,1,12.6,1
12/5/2003 21:00,19.2,1,59.3,1,19.2,1,17.8,1,11.8,1
12/5/2003 21:15,19.2,1,59.2,1,19.2,1,17.8,1,11.9,1
12/5/2003 21:30,19.2,1,59,1,19.2,1,17.7,1,12.1,1
12/5/2003 21:45,19.2,1,58.7,1,19.1,1,17.7,1,12.2,1